{"data":{"norad_id":66304,"epoch":"2026-09-20T04:17:50.066880Z","epoch_age_seconds":159423,"freshness":"FRESH","line1":"1 66304U 25248M   26263.17905170  .00011338  00000+0  38678-3 0  9999","line2":"2 66304  45.4191 317.5760 0008684 257.4150 102.5769 15.30496908 47875","mean_motion":15.30496908,"eccentricity":0.0008684,"inclination_deg":45.4191,"raan_deg":317.576,"arg_perigee_deg":257.415,"mean_anomaly_deg":102.5769,"bstar":0.00038678,"rev_number":4787,"period_min":94.087089785875,"perigee_km":468.37801775512,"apogee_km":480.27938018109,"semimajor_km":6852.4656989681,"source":"CELESTRAK","updated_at":"2026-09-21T09:00:15.902885Z"}}